sat.trackr.live / text

‹ back to catalog

QIANFAN-159

NORAD 69118 · 2026-108Q

PAYLOAD ACTIVE UNKNOWN

§ Identity

Operator
Country
PRC
Launch date
2026-05-17
Launch site
WSC
Launch vehicle
Mass (kg)
RCS (m²)

External: N2YO · Heavens-Above · Gunter

§ Orbital elements

Epoch: 2026-09-20T03:06:00.134208Z

Period
106.59 min
Inclination
89.0183°
Eccentricity
0.0001895
Mean motion
13.51023804 rev/d
Perigee alt
1,067.1 km
Apogee alt
1,069.9 km
Semi-major
7,446.6 km
B*
1.5765e-4
RAAN
12.5173°
Arg perigee
104.2232°
Mean anomaly
255.9130°
Rev number
1,728

§ Raw data

QIANFAN-1591 69118U 26108Q   26263.12916822  .00000114  00000+0  15765-3 0  99942 69118  89.0183  12.5173 0001895 104.2232 255.9130 13.51023804 17282

JSON: /api/v1/satellites/69118 · /tle

For live sub-satellite position, see the globe view (requires WebGL).

§ Visibility from observer

Set your observer location to see the next 7 days of passes ≥ 10°. The values pass through the URL so the page stays shareable.

No JS? Fill the form by hand. The geolocation button needs JavaScript.